This is the latest recevied weather packets stored in our database for station/object K8WEH. If no packets are shown the sender has not sent any weather packets the latest 1 day(s).
| Time | Temp. | Humidity | Pressure | Rain* | Wind** | Luminosity | Snow |
|---|---|---|---|---|---|---|---|
| 1778070647 | 8.33° C | 48% | 1011.3 hPa | 0 mm | - | - | - |
| 1778070344 | 8.33° C | 48% | 1011.4 hPa | 0 mm | - | - | - |
| 1778068237 | 8.33° C | 48% | 1010.5 hPa | 0 mm | - | - | - |
| 1778067038 | 8.33° C | 49% | 1009.9 hPa | 0 mm | - | - | - |
| 1778066133 | 8.89° C | 49% | 1009.5 hPa | 0.25 mm | - | - | - |
| 1778065528 | 8.89° C | 49% | 1009.3 hPa | 0.25 mm | - | - | - |
| 1778065238 | 8.89° C | 49% | 1009.2 hPa | 0.51 mm | - | - | - |
| 1778064926 | 8.89° C | 50% | 1008.9 hPa | 0.51 mm | - | - | - |
| 1778064626 | 8.89° C | 50% | 1008.5 hPa | 0.51 mm | - | - | - |
| 1778064327 | 9.44° C | 50% | 1008.4 hPa | 0.51 mm | - | - | - |
| 1778063424 | 10° C | 50% | 1008.7 hPa | 1.02 mm | - | - | - |
| 1778063120 | 10° C | 50% | 1008.6 hPa | 1.27 mm | - | - | - |
| 1778062818 | 10° C | 51% | 1008.5 hPa | 1.27 mm | - | - | - |
| 1778062216 | 11.67° C | 49% | 1008.3 hPa | 1.52 mm | - | - | - |
| 1778061618 | 13.89° C | 39% | 1008.2 hPa | 1.52 mm | - | - | - |
| 1778061013 | 13.89° C | 39% | 1007.8 hPa | 1.52 mm | - | - | - |
| 1778060713 | 13.89° C | 39% | 1007.5 hPa | 1.78 mm | - | - | - |
| 1778060116 | 13.89° C | 39% | 1007.3 hPa | 1.78 mm | - | - | - |
| 1778059211 | 13.89° C | 39% | 1007.7 hPa | 1.27 mm | - | - | - |
| 1778058911 | 13.89° C | 40% | 1007.5 hPa | 1.78 mm | - | - | - |
| 1778058316 | 13.89° C | 40% | 1007.5 hPa | 2.03 mm | - | - | - |
| 1778057711 | 13.89° C | 40% | 1007.5 hPa | 2.54 mm | - | - | - |
| 1778056810 | 13.89° C | 40% | 1007.5 hPa | 2.79 mm | - | - | - |
| 1778056511 | 13.89° C | 40% | 1007.5 hPa | 2.79 mm | - | - | - |
| 1778055914 | 13.89° C | 40% | 1007.4 hPa | 2.54 mm | - | - | - |
* Rain latest hour (hover to see other rain measurements)
** Current wind speed in m/s (hover to see current wind gust speed)